Location: Nairn
(57.5833°N, 3.8667°W)
Time: 17:40:04
(UTC+00:00)

S-56A Canister/Altair - Pass Details

Date: 29 November 2020
Orbit: 633 x 2499 km, 38.9° (Epoch: 19 January)

Event Time Altitude Azimuth Distance (km) Brightness Sun altitude
Rises 19:16:37 0° 212° (SSW) 5,553 12.3 -27.8°
Reaches altitude 10° 19:22:22 10° 195° (SSW) 4,178 11.4 -28.6°
Maximum altitude 19:28:05 16° 163° (SSE) 3,274 10.5 -29.3°
Enters shadow 19:28:19 16° 161° (SSE) 3,257 10.5 -29.4°
Drops below altitude 10° 19:32:50 10° 129° (SE) 3,341 - -30.0°
Sets 19:36:37 0° 108° (ESE) 3,979 - -30.5°
